Starlink 34160

operational
NORAD ID: 64119 Int'l Des: 2025-110 Owner: SPXS Country: US Constellation: starlink
LEOCIRCULAR

Über Starlink 34160

Beschreibung wird geladen...

Live-Position

3D-Globus wird geladen...

Nächste Überflüge

Höhenverlauf

Altitude vs Time

uPlot chart will show altitude changes over time

Zweizeiliger Elementsatz

1 64119U 25110Z 26063.11934184 .00034691 00000-0 11771-2 0 9990
2 64119 53.1585 52.3449 0001749 123.7802 236.3365 15.30222686 45036
Epoch: 4. März 2026 • Age: 18 hours

Aktueller Status

Höhe 480.3 km
Geschwindigkeit 7.63 km/s
Subsatellitenpunkt -15.98°S, 42.3°W
Startdatum 23. Mai 2025
Alter 0.7 years
Typ internet

Technische Details

Klassifizierung Payload
Masse 575.00 kg
Trockenmasse 530.00 kg
Gesamtmasse 575.00 kg
Länge 0.30 m
Durchmesser 4.10 m
Spannweite 29.00 m
Form Box + pan
Hersteller SPXS
Bus-Typ Starlink V2MO
Phasenstatus In Orbit
Besitzer/Staat SPXS/US

Große Konstellationen

Loading constellations...